Weather History for Beaver Island, MI

Change the Weather History Date:

Saturday, July 20, 2013

  Actual Average Record
Temperature  
Mean Temperature 56 °F -  
Max Temperature 65 °F 76 °F 90 °F (1955)
Min Temperature 46 °F 56 °F 42 °F (1958)
Degree Days  
Heating Degree Days 8    
Growing Degree Days 6 (Base 50)    
Moisture  
Dew Point 47 °F    
Average Humidity 65    
Maximum Humidity 100    
Minimum Humidity 41    
Precipitation  
Precipitation 0.00 in - - ()
Sea Level Pressure  
Sea Level Pressure 29.89 in    
Wind  
Wind Speed 5 mph (NW)    
Max Wind Speed 13 mph    
Max Gust Speed 20 mph    
Visibility 10 miles    
Events      
Averages and records for this station are not official NWS values.
T = Trace of Precipitation, MM = Missing Value Source: NWS Daily Summary

Daily Weather History Graph

Daily Weather History Graph

Search for Another Location

Airport:

Trip Planner

Search our weather history database for the weather conditions in past years. The results will help you decide how hot, cold, wet, or windy it might be!

Date:

Astronomy

Jul. 20, 2013 Rise Set
Actual Time 6:12 AM EDT 9:24 PM EDT
Civil Twilight 5:36 AM EDT 9:59 PM EDT
Nautical Twilight 4:49 AM EDT 10:46 PM EDT
Astronomical Twilight 3:52 AM EDT 11:43 PM EDT
Moon 7:26 PM EDT (7/20) 3:52 AM EDT (7/20)
Length of Visible Light 16h 23m
Length of Day
15h 11m
Waxing Gibbous, 93% of the Moon is Illuminated
Jul 20
Waxing Gibbous
Jul 22
Full
Jul 29
Last Quarter
Aug 6
New
Aug 14
First Quarter

Hourly Weather History & Observations

Time (EDT) Temp. Dew Point Humidity Pressure Visibility Wind Dir Wind Speed Gust Speed Precip Events Conditions
12:15 AM 55.2 °F 54.9 °F 99% 29.76 in 10.0 mi Calm Calm - N/A   Clear
12:35 AM 54.7 °F 54.3 °F 99% 29.76 in 1.0 mi Calm Calm - N/A   Mist
12:55 AM 54.3 °F 54.3 °F 100% 29.76 in 3.0 mi Calm Calm - N/A   Clear
1:15 AM 54.5 °F 54.5 °F 100% 29.76 in 4.0 mi Calm Calm - N/A   Clear
1:35 AM 53.4 °F 53.4 °F 100% 29.76 in 5.0 mi Calm Calm - N/A   Clear
1:55 AM 54.0 °F 54.0 °F 100% 29.77 in 4.0 mi Calm Calm - N/A   Clear
2:15 AM 55.8 °F 55.8 °F 100% 29.76 in 10.0 mi Calm Calm - N/A   Clear
2:34 AM 56.3 °F 55.8 °F 98% 29.76 in 10.0 mi Calm Calm - N/A   Clear
2:55 AM 57.4 °F 55.6 °F 94% 29.76 in 10.0 mi Calm Calm - N/A   Clear
3:15 AM 58.1 °F 56.1 °F 93% 29.76 in 10.0 mi Calm Calm - N/A   Clear
3:35 AM 58.5 °F 57.7 °F 97% 29.75 in 10.0 mi SW 4.6 mph - N/A   Scattered Clouds
3:55 AM 59.9 °F 58.5 °F 95% 29.75 in 10.0 mi SW 4.6 mph - N/A   Scattered Clouds
4:15 AM 61.0 °F 59.0 °F 93% 29.75 in 10.0 mi SW 5.8 mph - N/A   Mostly Cloudy
4:35 AM 61.9 °F 59.2 °F 91% 29.75 in 10.0 mi WSW 8.1 mph - N/A   Scattered Clouds
4:55 AM 61.9 °F 59.9 °F 93% 29.76 in 10.0 mi West 6.9 mph - N/A   Scattered Clouds
5:15 AM 63.5 °F 56.5 °F 78% 29.77 in 10.0 mi WNW 9.2 mph 18.4 mph N/A   Scattered Clouds
5:35 AM 63.1 °F 53.6 °F 71% 29.78 in 10.0 mi NW 11.5 mph 18.4 mph N/A   Mostly Cloudy
5:55 AM 61.9 °F 54.1 °F 76% 29.78 in 10.0 mi WNW 5.8 mph - N/A   Overcast
6:15 AM 61.5 °F 53.4 °F 75% 29.79 in 10.0 mi NW 6.9 mph - N/A   Overcast
6:35 AM 60.8 °F 53.6 °F 77% 29.80 in 10.0 mi NW 8.1 mph - N/A   Overcast
6:54 AM 59.9 °F 52.9 °F 78% 29.80 in 10.0 mi NNW 6.9 mph - N/A   Mostly Cloudy
7:15 AM 59.4 °F 52.0 °F 77% 29.81 in 10.0 mi NNW 6.9 mph - N/A   Scattered Clouds
7:35 AM 59.9 °F 49.3 °F 68% 29.82 in 10.0 mi North 5.8 mph - N/A   Clear
7:54 AM 59.9 °F 49.1 °F 67% 29.83 in 10.0 mi North 10.4 mph 16.1 mph N/A   Clear
8:15 AM 60.1 °F 48.7 °F 66% 29.84 in 10.0 mi North 9.2 mph - N/A   Clear
8:35 AM 60.3 °F 47.1 °F 62% 29.85 in 10.0 mi NNW 10.4 mph - N/A   Clear
8:55 AM 60.1 °F 46.8 °F 61% 29.86 in 10.0 mi North 6.9 mph 16.1 mph N/A   Clear
9:15 AM 60.8 °F 46.8 °F 60% 29.87 in 10.0 mi North 9.2 mph - N/A   Clear
9:35 AM 61.7 °F 47.1 °F 59% 29.87 in 10.0 mi NNW 10.4 mph 17.3 mph N/A   Clear
9:55 AM 61.9 °F 45.1 °F 54% 29.88 in 10.0 mi NNW 8.1 mph 17.3 mph N/A   Clear
10:15 AM 61.7 °F 47.5 °F 60% 29.89 in 10.0 mi NNW 8.1 mph 16.1 mph N/A   Clear
10:34 AM 62.2 °F 46.4 °F 56% 29.89 in 10.0 mi NNW 10.4 mph - N/A   Clear
10:55 AM 63.0 °F 46.0 °F 54% 29.90 in 10.0 mi NNW 9.2 mph - N/A   Clear
11:15 AM 63.3 °F 43.9 °F 49% 29.91 in 10.0 mi NNW 9.2 mph 16.1 mph N/A   Clear
11:35 AM 63.0 °F 44.1 °F 50% 29.93 in 10.0 mi NW 6.9 mph - N/A   Clear
11:55 AM 63.1 °F 42.6 °F 47% 29.93 in 10.0 mi NW 6.9 mph - N/A   Clear
12:15 PM 64.6 °F 42.6 °F 45% 29.93 in 10.0 mi NW 10.4 mph 17.3 mph N/A   Clear
12:35 PM 64.0 °F 41.5 °F 44% 29.94 in 10.0 mi NNW 11.5 mph 16.1 mph N/A   Clear
12:55 PM 64.9 °F 41.7 °F 43% 29.94 in 10.0 mi NW 11.5 mph - N/A   Clear
1:15 PM 64.6 °F 41.5 °F 43% 29.93 in 10.0 mi NW 11.5 mph 17.3 mph N/A   Clear
1:35 PM 65.5 °F 41.7 °F 42% 29.94 in 10.0 mi NNW 11.5 mph 16.1 mph N/A   Clear
1:54 PM 64.6 °F 40.6 °F 42% 29.94 in 10.0 mi NW 12.7 mph 17.3 mph N/A   Clear
2:15 PM 65.3 °F 40.8 °F 41% 29.95 in 10.0 mi WNW 10.4 mph 19.6 mph N/A   Clear
2:35 PM 64.8 °F 40.5 °F 41% 29.95 in 10.0 mi NW 11.5 mph 16.1 mph N/A   Clear
2:55 PM 65.5 °F 41.4 °F 41% 29.94 in 10.0 mi NW 9.2 mph 16.1 mph N/A   Clear
3:15 PM 64.8 °F 41.4 °F 42% 29.94 in 10.0 mi NW 12.7 mph 16.1 mph N/A   Clear
3:35 PM 64.4 °F 41.0 °F 42% 29.95 in 10.0 mi NW 11.5 mph 17.3 mph N/A   Clear
3:55 PM 65.5 °F 41.5 °F 42% 29.95 in 10.0 mi NW 11.5 mph - N/A   Clear
4:15 PM 65.5 °F 41.4 °F 41% 29.95 in 10.0 mi NNW 11.5 mph 17.3 mph N/A   Clear
4:34 PM 64.9 °F 42.1 °F 43% 29.95 in 10.0 mi NW 10.4 mph - N/A   Clear
4:55 PM 64.8 °F 41.7 °F 43% 29.96 in 10.0 mi WNW 8.1 mph - N/A   Clear
5:15 PM 64.6 °F 41.2 °F 42% 29.96 in 10.0 mi NNW 9.2 mph - N/A   Clear
5:35 PM 64.0 °F 41.0 °F 43% 29.96 in 10.0 mi NNW 12.7 mph 18.4 mph N/A   Clear
5:55 PM 63.3 °F 41.2 °F 44% 29.96 in 10.0 mi NW 10.4 mph 19.6 mph N/A   Clear
6:14 PM 63.0 °F 41.2 °F 45% 29.97 in 10.0 mi NW 10.4 mph 18.4 mph N/A   Clear
6:35 PM 62.1 °F 41.2 °F 46% 29.97 in 10.0 mi WNW 11.5 mph 16.1 mph N/A   Clear
6:55 PM 61.5 °F 41.7 °F 48% 29.97 in 10.0 mi NW 12.7 mph 17.3 mph N/A   Clear
7:15 PM 60.8 °F 41.5 °F 49% 29.96 in 10.0 mi NW 10.4 mph 16.1 mph N/A   Clear
7:35 PM 60.3 °F 42.1 °F 51% 29.96 in 10.0 mi NNW 9.2 mph 18.4 mph N/A   Clear
7:55 PM 59.4 °F 42.3 °F 53% 29.96 in 10.0 mi NNW 8.1 mph - N/A   Clear
8:15 PM 58.3 °F 42.8 °F 56% 29.96 in 10.0 mi NNW 4.6 mph - N/A   Clear
8:35 PM 57.2 °F 42.3 °F 57% 29.97 in 10.0 mi North 8.1 mph - N/A   Clear
8:54 PM 56.3 °F 42.8 °F 61% 29.98 in 10.0 mi North 6.9 mph - N/A   Clear
9:15 PM 54.5 °F 40.5 °F 59% 29.98 in 10.0 mi North 4.6 mph - N/A   Clear
9:35 PM 53.8 °F 41.4 °F 63% 29.99 in 10.0 mi North 3.5 mph - N/A   Clear
9:55 PM 52.7 °F 42.4 °F 68% 30.00 in 10.0 mi North 4.6 mph - N/A   Clear
10:15 PM 52.0 °F 43.2 °F 72% 30.00 in 10.0 mi North 4.6 mph - N/A   Clear
10:35 PM 51.3 °F 43.3 °F 74% 30.01 in 10.0 mi Calm Calm - N/A   Clear
10:55 PM 50.2 °F 43.7 °F 78% 30.01 in 10.0 mi Calm Calm - N/A   Clear
11:15 PM 50.7 °F 44.6 °F 80% 30.02 in 10.0 mi Calm Calm - N/A   Clear
11:35 PM 48.0 °F 44.4 °F 87% 30.03 in 10.0 mi Calm Calm - N/A   Clear
11:55 PM 46.9 °F 44.6 °F 92% 30.03 in 10.0 mi North 3.5 mph - N/A   Clear